Weather History for CYYG - April, 2013

Change the Weather History Date:

Wednesday, April 24, 2013

  Actual Average Record
Temperature  
Mean Temperature 47 °F -  
Max Temperature 57 °F 54 °F - ()
Min Temperature 37 °F 37 °F - ()
Degree Days  
Heating Degree Days 18    
Moisture  
Dew Point 48 °F    
Average Humidity 97    
Maximum Humidity 100    
Minimum Humidity 88    
Precipitation  
Precipitation 0.08 in 0.13 in - ()
Sea Level Pressure  
Sea Level Pressure 30.19 in    
Wind  
Wind Speed 14 mph ()    
Max Wind Speed 26 mph    
Max Gust Speed 39 mph    
Visibility 11.1 miles    
Events Rain    
T = Trace of Precipitation, MM = Missing Value Source: Averaged Metar Reports

Daily Weather History Graph

Daily Weather History Graph

Search for Another Location

Airport or City:

Trip Planner

Search our weather history database for the weather conditions in past years. The results will help you decide how hot, cold, wet, or windy it might be!

Date:

Astronomy

Apr. 24, 2013 Rise Set
Actual Time 6:09 AM ADT 8:12 PM ADT
Civil Twilight 5:37 AM ADT 8:44 PM ADT
Nautical Twilight 4:57 AM ADT 9:25 PM ADT
Astronomical Twilight 4:13 AM ADT 10:09 PM ADT
Moon 7:08 PM ADT (4/24) 5:15 AM ADT (4/24)
Length of Visible Light 15h 07m
Length of Day
14h 02m
Waxing Gibbous, 98% of the Moon is Illuminated
Apr 24
Waxing Gibbous
Apr 25
Full
May 2
Last Quarter
May 9
New
May 18
First Quarter

Hourly Weather History & Observations

Time (ADT) Temp. Windchill Dew Point Humidity Pressure Visibility Wind Dir Wind Speed Gust Speed Precip Events Conditions
12:00 AM 39.2 °F 32.0 °F 39.2 °F 100% 30.49 in 10.0 mi SE 11.5 mph - N/A Rain Light Rain
1:00 AM 39.2 °F 32.0 °F 37.4 °F 93% 30.45 in 10.0 mi ESE 11.5 mph 18.4 mph N/A Rain Light Rain
2:00 AM 37.4 °F 30.3 °F 37.4 °F 100% 30.43 in 10.0 mi East 10.4 mph - N/A Rain Light Rain
2:23 AM 37.4 °F 30.3 °F 37.4 °F 100% 30.42 in 10.0 mi East 10.4 mph - N/A Rain Light Rain
3:00 AM 38 °F - 38 °F 99% 30.39 in 10 mi East 9.2 mph - - Rain Light Rain
3:00 AM 37.4 °F 30.3 °F 37.4 °F 100% 30.39 in 10.0 mi East 10.4 mph - N/A Rain Light Rain
4:00 AM 39.2 °F 32.0 °F 39.2 °F 100% 30.35 in 10.0 mi East 11.5 mph - N/A Rain Light Rain
5:00 AM 39.2 °F 31.6 °F 39.2 °F 100% 30.31 in 10.0 mi East 12.7 mph - N/A Rain Light Rain
6:00 AM 41.0 °F 33.5 °F 41.0 °F 100% 30.28 in 8.0 mi ESE 13.8 mph - N/A Rain Light Rain
7:00 AM 42.8 °F 35.4 °F 42.8 °F 100% 30.27 in 15.0 mi ESE 15.0 mph - N/A   Light Drizzle
8:00 AM 42.8 °F 35.8 °F 42.8 °F 100% 30.27 in 12.0 mi ESE 13.8 mph - N/A   Light Drizzle
9:00 AM 45 °F - 45 °F 100% 30.27 in 12 mi ESE 13.8 mph - - Rain Light Drizzle
9:00 AM 44.6 °F 38.4 °F 44.6 °F 100% 30.26 in 12.0 mi ESE 12.7 mph - N/A   Overcast
10:00 AM 46.4 °F 40.1 °F 46.4 °F 100% 30.24 in 10.0 mi SE 15.0 mph 23.0 mph N/A   Overcast
10:25 AM 48.2 °F - 46.4 °F 93% 30.24 in 10.0 mi SE 16.1 mph - N/A   Light Drizzle
10:48 AM 48.2 °F - 48.2 °F 100% 30.23 in 12.0 mi SE 15.0 mph - N/A   Overcast
11:00 AM 50.0 °F - 48.2 °F 94% 30.23 in 12.0 mi SE 13.8 mph 20.7 mph N/A   Overcast
12:00 PM 51.8 °F - 50.0 °F 94% 30.22 in 10.0 mi SE 15.0 mph 23.0 mph N/A   Overcast
12:08 PM 51.8 °F - 50.0 °F 94% 30.21 in 8.0 mi SE 15.0 mph 23.0 mph N/A Rain Light Rain
12:44 PM 51.8 °F - 51.8 °F 100% 30.19 in 12.0 mi SE 16.1 mph 21.9 mph N/A   Overcast
1:00 PM 53.6 °F - 51.8 °F 94% 30.18 in 12.0 mi SE 17.3 mph 25.3 mph N/A   Overcast
2:00 PM 53.6 °F - 53.6 °F 100% 30.16 in 10.0 mi SE 19.6 mph 26.5 mph N/A   Overcast
3:00 PM 57 °F - 55 °F 92% 30.12 in 12 mi SE 18.4 mph - -   Partly Cloudy
3:00 PM 57.2 °F - 55.4 °F 94% 30.12 in 12.0 mi SE 18.4 mph 28.8 mph N/A   Overcast
4:00 PM 57.2 °F - 55.4 °F 94% 30.09 in 12.0 mi SE 23.0 mph - N/A   Overcast
4:44 PM 57.2 °F - 55.4 °F 94% 30.07 in 12.0 mi SSE 23.0 mph 29.9 mph N/A   Overcast
5:00 PM 57.2 °F - 55.4 °F 94% 30.06 in 12.0 mi SSE 20.7 mph 31.1 mph N/A   Overcast
5:43 PM 57.2 °F - 53.6 °F 88% 30.06 in 12.0 mi SSE 20.7 mph 32.2 mph N/A   Light Drizzle
5:55 PM 57.2 °F - 53.6 °F 88% 30.05 in 12.0 mi SE 19.6 mph 27.6 mph N/A Rain Light Rain
6:00 PM 55.4 °F - 53.6 °F 94% 30.05 in 12.0 mi SE 20.7 mph 28.8 mph N/A Rain Light Rain
7:00 PM 55.4 °F - 53.6 °F 94% 30.02 in 12.0 mi SSE 20.7 mph 29.9 mph N/A Rain Light Rain
8:00 PM 55.4 °F - 53.6 °F 94% 29.99 in 12.0 mi SSE 26.5 mph 34.5 mph N/A Rain Light Rain Showers
9:00 PM 55 °F - 53 °F 92% 29.98 in 12 mi SSE 24.2 mph - - Rain Light Rain Showers
9:00 PM 55.4 °F - 53.6 °F 94% 29.98 in 12.0 mi SSE 24.2 mph 39.1 mph N/A Rain Light Rain Showers
9:22 PM 53.6 °F - 53.6 °F 100% 29.98 in 12.0 mi SSE 26.5 mph 39.1 mph N/A   Overcast
9:31 PM 53.6 °F - 53.6 °F 100% 29.98 in 8.0 mi SSE 26.5 mph 39.1 mph N/A Rain Light Rain Showers
10:00 PM 53.6 °F - 53.6 °F 100% 29.98 in 10.0 mi SSE 24.2 mph 34.5 mph N/A Rain Light Rain Showers